Change the Weather History Date:

Thursday, September 5, 2013

  Actual Average Record
Temperature  
Mean Temperature 64 °F 56 °F  
Max Temperature 78 °F 73 °F 93 °F (1998)
Min Temperature 50 °F 39 °F 23 °F (1969)
Degree Days  
Heating Degree Days 1 9  
Month to date heating degree days 1 42  
Since 1 July heating degree days 68 270  
Cooling Degree Days 0 0  
Month to date cooling degree days 5 0  
Year to date cooling degree days 101 79  
Growing Degree Days 14 (Base 50)    
Moisture  
Dew Point 52 °F    
Average Humidity 62    
Maximum Humidity 89    
Minimum Humidity 35    
Precipitation  
Precipitation T in 0.04 in 0.86 in (2007)
Month to date precipitation 0.07 0.20  
Year to date precipitation 7.36 10.08  
Snow  
Snow 0.00 in - - ()
Snow Depth -    
Sea Level Pressure  
Sea Level Pressure 30.07 in    
Wind  
Wind Speed 5 mph (NNW)    
Max Wind Speed 26 mph    
Max Gust Speed 32 mph    
Visibility 10 miles    
Events Rain , Thunderstorm    
T = Trace of Precipitation, MM = Missing Value Source: NWS Daily Summary

Daily Weather History Graph

Daily Weather History Graph

Search for Another Location

Airport or City:

Trip Planner

Search our weather history database for the weather conditions in past years. The results will help you decide how hot, cold, wet, or windy it might be!

Date:

Astronomy

Sep. 05, 2013 Rise Set
Actual Time 6:56 AM MDT 8:00 PM MDT
Civil Twilight 6:25 AM MDT 8:30 PM MDT
Nautical Twilight 5:48 AM MDT 9:07 PM MDT
Astronomical Twilight 5:10 AM MDT 9:45 PM MDT
Moon 7:15 AM MDT (9/5) 7:48 PM MDT (9/5)
Length of Visible Light 14h 04m
Length of Day
13h 03m
New Moon, 0% of the Moon is Illuminated
Sep 5
New Moon
Sep 12
First Quarter
Sep 19
Full
Sep 26
Last Quarter
Oct 4
New

Hourly Weather History & Observations

Time (MDT) Temp. Dew Point Humidity Pressure Visibility Wind Dir Wind Speed Gust Speed Precip Events Conditions
12:53 AM 57.9 °F 50.0 °F 75% 30.07 in 10.0 mi Calm Calm - N/A   Clear
1:53 AM 55.9 °F 50.0 °F 80% 30.06 in 10.0 mi SE 3.5 mph - N/A   Clear
2:53 AM 55.0 °F 50.0 °F 83% 30.06 in 10.0 mi Calm Calm - N/A   Clear
3:53 AM 54.0 °F 48.9 °F 83% 30.04 in 10.0 mi SSE 3.5 mph - N/A   Clear
4:53 AM 53.1 °F 48.0 °F 83% 30.05 in 10.0 mi ESE 5.8 mph - N/A   Clear
5:53 AM 52.0 °F 48.0 °F 86% 30.05 in 10.0 mi Calm Calm - N/A   Clear
6:53 AM 51.1 °F 46.9 °F 86% 30.06 in 10.0 mi Calm Calm - N/A   Clear
7:53 AM 51.1 °F 48.0 °F 89% 30.07 in 10.0 mi Calm Calm - N/A   Clear
8:53 AM 57.9 °F 51.1 °F 78% 30.07 in 10.0 mi East 3.5 mph - N/A   Clear
9:53 AM 60.1 °F 52.0 °F 75% 30.08 in 10.0 mi ESE 3.5 mph - N/A   Mostly Cloudy
10:53 AM 68.0 °F 51.1 °F 55% 30.04 in 10.0 mi Calm Calm - 0.00 in   Scattered Clouds
11:53 AM 75.9 °F 51.1 °F 42% 30.01 in 10.0 mi Variable 4.6 mph - N/A   Partly Cloudy
12:53 PM 78.1 °F 48.9 °F 36% 30.00 in 10.0 mi South 23.0 mph 32.2 mph N/A   Mostly Cloudy
1:01 PM 77.0 °F 48.2 °F 36% 30.17 in 10.0 mi South 19.6 mph 32.2 mph N/A Thunderstorm Scattered Clouds
1:16 PM 75.2 °F 51.8 °F 44% 30.19 in 10.0 mi South 21.9 mph 28.8 mph N/A   Partly Cloudy
1:53 PM 71.1 °F 52.0 °F 51% 30.06 in 10.0 mi WSW 9.2 mph 21.9 mph N/A   Overcast
2:51 PM 68.0 °F 53.6 °F 60% 30.21 in 10.0 mi North 13.8 mph - 0.00 in   Overcast
2:53 PM 68.0 °F 54.0 °F 61% 30.07 in 10.0 mi North 12.7 mph - 0.00 in   Overcast
3:53 PM 73.0 °F 52.0 °F 48% 30.04 in 10.0 mi North 6.9 mph - N/A   Clear
4:53 PM 75.0 °F 52.0 °F 44% 30.01 in 10.0 mi NNE 8.1 mph - N/A   Clear
5:53 PM 75.0 °F 48.9 °F 40% 29.98 in 10.0 mi NNW 3.5 mph - N/A   Clear
6:53 PM 71.1 °F 53.1 °F 53% 30.00 in 10.0 mi West 4.6 mph - 0.00 in Rain Light Rain
7:09 PM 69.8 °F 55.4 °F 60% 30.13 in 10.0 mi NW 4.6 mph - 0.00 in Rain , Thunderstorm Light Rain
7:26 PM 68.0 °F 53.6 °F 60% 30.12 in 10.0 mi NE 8.1 mph - 0.00 in   Mostly Cloudy
7:46 PM 66.2 °F 53.6 °F 64% 30.13 in 10.0 mi NNW 6.9 mph - 0.00 in Rain , Thunderstorm Light Rain
7:53 PM 66.9 °F 55.0 °F 66% 30.01 in 10.0 mi NNW 3.5 mph - 0.00 in Rain , Thunderstorm Light Rain
8:01 PM 66.2 °F 55.4 °F 68% 30.15 in 10.0 mi West 5.8 mph - 0.00 in   Overcast
8:53 PM 63.0 °F 55.9 °F 78% 30.05 in 10.0 mi North 5.8 mph - 0.00 in   Clear
9:53 PM 62.1 °F 55.9 °F 80% 30.04 in 10.0 mi Calm Calm - N/A   Partly Cloudy
10:53 PM 61.0 °F 54.0 °F 78% 30.03 in 10.0 mi SW 3.5 mph - 0.00 in   Scattered Clouds
11:53 PM 60.1 °F 55.0 °F 83% 30.01 in 10.0 mi WNW 9.2 mph - N/A   Clear